Flag for France Weather past 2 weeks in Strasbourg, France

Now
48 °F

Clear.


Feels Like: 46 °F
Forecast: 36 / 58 °F
Wind: 6 mph from Northwest

Location: Strasbourg Airport

Current Time: Mar 27, 2015 at 8:43:58 PM

Latest Report: Mar 27, 2015 at 8:00 PM


Visibility: N/A

Pressure: 30.21 "Hg

Humidity: 46%

Dew point: 28 °F

Location of StrasbourgLocation

Historic Weather in Strasbourg — Graph

°F

Strasbourg temperature yesterday

Maximum temperature yesterday: 52 °F (at 3:30 PM)
Minimum temperature yesterday: 43 °F (at 4:00 AM)
Average temperature yesterday: 46 °F

Past Weeks' High & Low Weather Summary

 TemperatureHumidityPressure
High66 °F (Mar 18, 3:00 PM)93% (Mar 14, 7:00 AM)30.30 "Hg (Mar 14, 7:00 AM)
Low28 °F (Mar 14, 7:00 AM)30% (Mar 20, 4:00 PM)29.65 "Hg (Mar 24, 10:00 PM)
Average46 °F68%30.06 "Hg
* Reported Mar 12 7:00 PM — Mar 27 7:30 PM, Strasbourg, Weather by CustomWeather, © 2015

Note: Actual official high and low records may vary slightly from our data, if they occured in-between our weather recording intervals... More about our weather records

Advertising

Strasbourg weather history for previous 24 hours

 ConditionsComfort  
Time TempWeatherWind HumidityBarometerVisibility
7:30 PM
Fri, Mar 27
48 °FClear.7 mph50%30.21 "HgN/A
7:00 PM50 °FPassing clouds.7 mph47%30.21 "HgN/A
6:30 PM52 °FPartly sunny.10 mph44%30.18 "HgN/A
6:00 PM54 °FPartly sunny.12 mph38%30.18 "HgN/A
5:30 PM54 °FClear.12 mph38%30.15 "HgN/A
5:00 PM54 °FPartly sunny.12 mph38%30.15 "HgN/A
4:30 PM55 °FClear.13 mph33%30.12 "HgN/A
4:00 PM55 °FClear.9 mph36%30.12 "HgN/A
3:30 PM55 °FBroken clouds.12 mph36%30.12 "HgN/A
3:00 PM55 °FClear.9 mph36%30.12 "HgN/A
2:30 PM55 °FPartly sunny.12 mph38%30.12 "HgN/A
2:00 PM55 °FPartly sunny.9 mph38%30.12 "HgN/A
1:30 PM54 °FPartly sunny.14 mph41%30.12 "HgN/A
1:00 PM54 °FPartly sunny.14 mph44%30.12 "HgN/A
12:30 PM54 °FPartly sunny.12 mph41%30.12 "HgN/A
12:00 PM54 °FPartly sunny.13 mph44%30.12 "HgN/A
11:30 AM54 °FPartly sunny.10 mph47%30.12 "HgN/A
11:00 AM52 °FPartly sunny.12 mph50%30.12 "HgN/A
10:30 AM52 °FPartly sunny.8 mph54%30.12 "HgN/A
10:00 AM50 °FPartly sunny.12 mph58%30.12 "HgN/A
9:30 AM48 °FBroken clouds.10 mph66%30.09 "HgN/A
9:00 AM48 °FPartly sunny.9 mph66%30.09 "HgN/A
8:30 AM46 °FPartly sunny.5 mph76%30.07 "HgN/A
8:00 AM45 °FClear.5 mph87%30.07 "HgN/A
7:30 AM43 °FMostly cloudy.2 mph87%30.07 "HgN/A
7:00 AM39 °FPartly sunny.3 mph93%30.04 "HgN/A
6:30 AM39 °FPartly sunny.3 mph93%30.04 "HgN/A
6:00 AM39 °FClear.2 mph87%30.01 "HgN/A
5:30 AM39 °FPassing clouds.2 mph87%30.01 "HgN/A
5:00 AM41 °FClear.3 mph87%29.98 "HgN/A
3:30 AM45 °FOvercast.6 mph87%29.95 "HgN/A
3:00 AM45 °FOvercast.8 mph81%29.95 "HgN/A
2:30 AM43 °FLight rain. Passing clouds.7 mph87%29.95 "HgN/A
2:00 AM45 °FOvercast.8 mph81%29.95 "HgN/A
1:30 AM45 °FOvercast.7 mph81%29.92 "HgN/A
1:00 AM45 °FOvercast.12 mph76%29.92 "HgN/A
12:30 AM45 °FPartly cloudy.10 mph76%29.92 "HgN/A
12:00 AM45 °FOvercast.5 mph76%29.92 "HgN/A
11:30 PM
Thu, Mar 26
43 °FMostly cloudy.6 mph87%29.92 "HgN/A
11:00 PM45 °FLight rain. Mostly cloudy.8 mph81%29.89 "HgN/A
10:30 PM45 °FOvercast.9 mph76%29.89 "HgN/A
10:00 PM45 °FMostly cloudy.10 mph76%29.89 "HgN/A
9:30 PM45 °FMostly cloudy.8 mph76%29.89 "HgN/A
9:00 PM45 °FOvercast.8 mph76%29.89 "HgN/A
8:30 PM45 °FOvercast.10 mph76%29.86 "HgN/A
8:00 PM45 °FOvercast.12 mph76%29.86 "HgN/A
Weather by CustomWeather, © 2015

See weather overviewHow to use our weather pages